Regional Weather Roundup
Issued by NWS

Home | Current Version | Previous Version | Graphics & Text | Print | Product List | Glossary Off
Versions: 1 2 3 4 5 6 7 8 9 10 11 12 13 14 15 16 17 18 19 20 21 22 23 24 25 26 27 28 29 30 31 32 33 34 35 36 37 38 39 40 41 42 43 44 45 46 47 48 49 50

000
ASUS43 KTOP 211908
RWRKS

WEATHER ROUNDUP FOR KANSAS
NATIONAL WEATHER SERVICE GOODLAND KS
200 PM CDT SAT OCT 21 2017

NOTE:  "FAIR" INDICATES FEW OR NO CLOUDS BELOW 12,000 FEET WITH NO
SIGNIFICANT WEATHER AND/OR OBSTRUCTIONS TO VISIBILITY.

KSZ001>006-013>018-027>032-041>047-212000-
NORTHWEST KANSAS

CITY           SKY/WX    TMP DP  RH WIND       PRES   REMARKS
GOODLAND       SUNNY     59  24  26 N28G37    29.93S
HAYS           SUNNY     67  37  33 N24G35    29.85R
HILL CITY      CLOUDY    61  39  44 NW23G32   29.89R
RUSSELL        MOSUNNY   69  39  33 N22G33    29.83R
$$

KSZ061>065-074>080-084>089-212000-
SOUTHWEST KANSAS

CITY           SKY/WX    TMP DP  RH WIND       PRES   REMARKS
DODGE CITY     PTSUNNY   66  31  27 N18G35    29.88S
GARDEN CITY    PTSUNNY   57  32  38 N26G33    29.91S
GREAT BEND     MOSUNNY   68  40  35 N20G28    29.83R
LIBERAL        CLOUDY    61  35  37 N24       29.92R
PRATT          PTSUNNY   70  34  26 N22       29.82F
$$

KSZ066>073-081>083-090>101-212000-
SOUTHEAST KANSAS

CITY           SKY/WX    TMP DP  RH WIND       PRES   REMARKS
CHANUTE        CLOUDY    74  65  73 S15G24    29.84F
COFFEYVILLE    CLOUDY    76  65  68 S15G24    29.84F
HUTCHINSON     CLOUDY    68  46  45 NW16      29.79R
MEDICINE LODGE   N/A     72  48  42 NW14G25   29.79R
NEWTON         CLOUDY    72  66  81 SW13      29.77F
PARSONS        CLOUDY    75  65  70 S12G23    29.85F
WICHITA INTL   LGT RAIN  74  67  78 SW16G24   29.76F
WICHITA JABRA  PTSUNNY   77  67  71 S16G28    29.76F
WICHITA MCCONL MOSUNNY   76  64  65 SW25G31   29.77F
WINFIELD       CLOUDY    75  67  76 S12       29.80F
$$

KSZ007>012-019>026-033>040-048>060-102>105-212000-
NORTHEAST KANSAS

CITY           SKY/WX    TMP DP  RH WIND       PRES   REMARKS
CONCORDIA      MOSUNNY   69  47  45 NW23G30   29.77R
EMPORIA        LGT RAIN  74  63  68 S25G37    29.79R
LAWRENCE       CLOUDY    74  65  73 S15G25    29.80S
MANHATTAN      CLOUDY    75  64  68 SW16G28   29.73F
MARYSVILLE     CLOUDY    70  52  52 W12       29.73R
OLATHE IND     CLOUDY    74  64  71 S20       29.82F
OLATHE EXE     CLOUDY    73  63  70 S18G29    29.81F
SALINA         CLOUDY    71  45  39 NW10      29.79R
TOPEKA BILLARD CLOUDY    74  65  73 S15G29    29.77F
TOPEKA FORBES  CLOUDY    75  65  70 S18G29    29.78F
$$



USA.gov is the U.S. government's official web portal to all federal, state and local government web resources and services.